Location: Unspecified
(0.0000°N, 0.0000°E)
Time: 05:28:56
(UTC+00:00)

OPS 0340 - Visible Passes

Search period start: 14 April 2026 00:00
Search period end: 24 April 2026 00:00
Orbit: 586 x 795 km, 98.0° (Epoch: 13 April)

Date Brightness Start Highest point End Pass type
(mag) Time Alt. Az. Time Alt. Az. Time Alt. Az.
14 Apr 9.5 04:03:25 10° SE 04:07:15 25° E 04:10:55 10° NNE visible
15 Apr 7.2 04:41:36 10° SSE 04:46:22 86° E 04:50:50 10° N visible
16 Apr 10.3 03:45:48 10° ESE 03:48:04 14° E 03:50:16 10° NE visible
16 Apr 8.1 05:21:25 10° SSW 05:25:23 27° WSW 05:29:10 10° NW visible
17 Apr 8.3 04:22:44 10° SSE 04:27:12 45° E 04:31:25 10° N visible
18 Apr 7.3 05:01:46 10° S 05:06:16 49° WSW 05:10:30 10° NNW visible
19 Apr 9.4 04:04:16 10° SE 04:08:00 25° E 04:11:33 10° NNE visible
20 Apr 7.1 04:42:30 10° SSE 04:47:07 89° E 04:51:26 10° NNW visible
21 Apr 10.2 03:46:40 10° ESE 03:48:47 13° E 03:50:52 10° NE visible
21 Apr 8.1 05:22:22 10° SSW 05:26:07 25° WSW 05:29:42 10° NW visible
22 Apr 8.2 04:23:35 10° SSE 04:27:55 46° E 04:32:01 10° N visible
23 Apr 7.3 05:02:39 10° S 05:06:58 46° WSW 05:11:04 10° NNW visible
